Probability
0 0 0 0 0 0 0 0 0 0 0 0 1 2 4 5 3 1 1 0 1 2 3 2 1 2 3 6 9 10 7 6 7 6 3 1 0 0 0 0 0 0 0 0 0 0 0 0 0
0 0 0 0 0 0 0 0 0 0 0 1 3 5 5 5 3 1 2 2 2 2 2 2 2 3 4 7 12 15 14 12 12 10 6 4 2 1 0 0 0 0 0 0 0 0 0 0 0
0 0 0 0 0 0 0 0 0 0 1 2 4 6 6 4 2 3 5 5 5 6 5 4 4 5 7 10 16 23 24 22 19 15 10 8 6 3 0 0 0 0 0 0 0 0 0 0 0
0 0 0 0 0 0 0 0 0 1 2 3 5 6 6 5 4 6 9 8 8 11 11 9 8 8 9 11 18 26 30 30 26 20 15 13 11 6 2 1 1 0 0 0 0 0 0 0 0
0 0 0 0 0 0 0 0 0 1 2 5 7 8 7 6 7 12 13 11 10 14 15 13 12 10 9 11 17 24 31 35 32 26 20 17 14 9 5 3 2 1 1 0 0 0 0 0 0
0 0 0 0 0 0 0 0 0 0 2 5 8 9 9 9 13 16 18 16 14 15 15 14 10 8 8 11 16 23 31 36 35 29 23 18 14 10 8 6 4 2 1 0 0 0 0 0 0
0 0 0 0 0 0 0 0 1 1 2 4 8 10 11 13 16 18 21 22 19 18 17 13 10 8 10 12 16 23 29 32 32 29 24 18 13 10 8 7 6 3 1 0 0 0 0 0 0
0 0 0 0 0 0 0 1 2 4 5 7 10 12 14 16 18 21 24 25 24 21 19 15 13 13 14 14 18 22 26 26 25 23 21 17 11 8 6 6 5 3 0 0 0 1 1 1 0
0 0 0 0 0 0 0 1 3 5 7 12 16 20 22 23 24 27 29 28 26 22 19 17 17 17 16 17 20 22 23 21 17 15 14 11 7 5 4 5 5 2 0 0 1 1 1 1 1
0 0 0 0 0 0 0 1 4 6 9 14 21 29 33 32 31 32 31 28 24 20 19 19 18 17 17 20 24 22 19 15 11 9 8 5 4 3 4 7 6 3 1 1 1 1 1 1 0
0 0 0 0 0 0 1 3 7 11 12 15 23 31 34 33 32 30 28 25 20 16 17 19 17 16 19 24 26 24 20 17 13 10 8 6 6 5 5 6 6 4 4 4 3 1 0 0 0
0 0 0 0 0 1 3 7 12 16 17 18 23 27 29 29 28 26 23 20 16 15 16 18 19 20 23 28 30 29 27 25 22 18 12 9 10 9 7 8 7 5 6 7 6 3 1 0 0
0 0 0 0 0 2 5 8 13 16 17 18 20 23 25 24 23 20 18 16 14 15 16 19 22 25 27 32 34 31 30 30 28 23 16 13 15 14 12 13 11 6 6 9 10 7 5 3 2
0 0 0 0 1 2 4 7 11 13 15 16 18 18 18 18 18 17 16 15 14 16 18 19 24 28 31 35 35 31 30 33 29 22 19 19 21 19 16 16 14 10 8 11 13 11 8 5 3
0 0 0 1 1 2 3 4 6 9 12 13 13 13 12 12 13 13 14 14 14 16 17 18 21 26 31 33 30 27 29 32 29 23 21 21 20 20 18 17 16 15 15 17 19 16 12 8 5
0 0 0 1 2 2 1 2 3 5 9 9 8 9 9 9 9 9 10 10 11 13 16 18 18 20 24 26 25 24 26 30 30 27 23 18 17 19 22 20 19 20 21 24 26 25 22 17 12
0 0 0 1 1 1 1 1 2 4 6 7 6 7 7 7 5 5 7 8 9 10 13 15 14 12 14 17 18 21 25 28 30 28 24 21 20 21 23 25 24 22 24 28 30 31 32 28 23
0 0 0 0 0 0 1 2 3 3 4 5 5 6 5 4 4 5 7 9 8 7 8 8 6 6 8 11 13 16 21 24 25 25 23 24 23 21 20 22 22 23 26 29 30 32 34 32 29
0 0 0 0 0 0 1 2 2 2 2 2 3 4 4 4 4 5 7 7 6 5 4 2 1 2 6 9 10 11 15 18 20 21 20 20 20 18 16 16 17 22 26 27 27 28 29 27 25
0 0 0 0 0 0 0 1 1 1 1 1 2 3 4 5 4 5 6 5 3 3 3 1 1 1 4 6 7 9 11 13 15 16 16 14 14 14 14 16 17 19 22 23 22 23 23 21 19
0 0 0 0 0 0 0 0 0 0 1 1 3 5 6 6 5 5 5 3 2 1 1 0 0 0 1 2 4 7 9 11 12 13 12 11 10 11 13 15 17 17 18 19 18 18 19 18 17
0 0 0 0 0 0 0 0 0 1 1 1 4 7 9 9 7 5 4 3 2 1 0 0 0 0 0 0 2 5 6 7 9 9 9 8 8 8 9 10 12 14 15 15 15 15 17 18 18
0 0 0 0 0 0 0 0 0 1 1 2 4 10 14 12 9 7 6 5 3 2 1 0 0 0 0 0 0 2 3 3 4 5 6 5 5 5 6 7 9 11 11 12 11 12 15 17 17
0 0 0 0 0 0 0 0 0 1 2 4 7 14 17 15 13 10 8 6 4 2 1 0 0 0 0 0 0 0 1 1 1 1 2 2 2 3 3 5 7 9 9 9 8 10 12 13 13
0 0 0 0 0 0 0 0 0 1 2 6 12 17 17 16 14 12 8 5 3 2 1 0 0 0 0 0 0 0 0 0 0 0 0 0 0 1 1 2 4 5 6 6 6 7 8 8 9
0 0 0 0 0 0 0 0 0 0 2 7 13 16 15 15 13 10 8 5 3 2 2 1 0 0 0 0 0 0 0 0 0 0 0 0 0 0 0 1 1 2 3 4 4 4 4 4 4
0 0 0 0 0 0 0 0 0 0 2 6 10 13 14 12 9 7 7 6 4 3 2 1 0 0 0 0 0 0 0 0 0 0 0 0 0 0 0 0 0 0 1 1 1 1 1 1 1
0 0 0 0 0 0 0 0 0 1 1 3 7 10 11 10 7 7 7 7 4 2 1 0 0 0 0 0 0 0 0 0 0 0 0 0 0 0 0 0 0 0 0 0 0 0 0 0 0
0 0 0 0 0 0 0 0 0 0 1 2 4 7 8 8 7 6 5 4 3 1 0 0 0 0 0 0 0 0 0 0 0 0 0 0 0 0 0 0 0 0 0 0 0 0 0 0 0
0 0 0 0 0 0 0 0 0 0 1 2 4 5 6 7 6 4 2 2 2 1 0 0 0 0 0 0 0 0 0 0 0 0 0 0 0 0 0 0 0 0 0 0 0 0 0 0 0
Wind_Speed
8 7 6 6 8 7 6 5 3 3 4 4 3 2 4 6 4 6 5 10 12 14 15 14 11 11 13 14 15 16 16 16 16 15 15 14 14 13 12 12 11 11 12 12 12 12 12 12 12
5 5 7 7 8 8 7 5 4 4 5 5 5 5 7 8 7 7 7 11 14 15 14 14 13 12 13 14 15 16 16 17 16 15 15 14 13 12 12 11 11 11 11 11 11 12 12 11 11
6 7 7 6 8 5 7 6 5 4 4 5 6 5 6 6 5 5 8 14 14 14 13 15 13 12 13 14 15 15 16 16 16 15 14 13 12 12 11 11 11 11 10 10 11 11 11 10 10
6 7 6 8 7 2 3 4 3 6 7 5 8 8 7 5 2 7 12 14 14 13 13 15 12 12 13 14 15 15 15 15 15 15 14 13 12 11 11 11 11 10 10 10 10 10 10 9 9
7 6 8 8 6 4 2 1 3 6 6 7 7 9 7 5 8 12 12 13 13 12 13 15 12 11 12 13 14 14 14 14 14 13 13 12 11 10 10 10 10 10 10 10 10 9 9 8 8
6 6 8 8 8 6 4 2 4 6 8 8 7 9 7 6 9 10 11 11 12 12 12 14 13 12 12 12 12 12 12 12 12 12 12 11 10 10 10 9 9 10 10 10 9 9 8 7 7
7 7 6 6 9 8 6 3 4 7 8 6 5 9 8 8 8 9 10 10 11 11 11 11 12 12 11 11 11 11 10 10 10 10 10 10 10 9 9 9 9 9 9 9 9 9 8 7 6
5 5 6 7 8 9 7 5 4 4 8 5 3 7 9 9 9 9 10 10 9 9 9 9 10 10 10 11 11 11 10 9 10 10 10 10 9 9 9 9 8 8 8 8 8 8 7 6 5
7 7 7 6 6 8 7 7 6 4 8 6 5 7 12 14 12 11 10 9 9 8 8 8 9 8 8 9 10 10 10 8 9 9 9 9 9 9 9 7 8 7 7 8 7 7 7 7 7
7 5 6 4 3 6 7 7 7 8 10 9 11 12 14 14 12 12 11 10 9 8 7 6 7 7 7 6 7 7 8 8 8 7 9 7 5 4 4 9 7 7 7 7 7 7 8 10 8
5 1 5 4 3 4 8 8 5 8 8 9 12 14 14 13 11 10 10 9 8 7 6 5 5 5 5 5 5 4 4 6 6 6 6 4 4 4 4 4 7 8 9 8 9 9 8 7 4
4 3 2 4 4 5 7 8 7 7 8 10 13 14 13 12 10 9 9 8 7 7 6 5 4 3 3 3 3 3 3 4 4 5 6 5 4 4 3 3 3 4 4 4 4 4 5 5 5
5 5 5 5 5 6 8 9 9 10 10 13 13 12 11 10 10 9 8 7 7 7 6 5 3 3 3 2 2 2 2 3 3 3 4 4 4 4 3 3 2 4 3 4 4 4 4 5 6
5 7 7 7 8 8 10 10 8 9 11 13 12 11 10 9 9 8 7 7 6 6 5 4 3 3 2 2 2 1 2 2 2 3 3 3 3 3 3 3 3 3 3 3 3 4 3 4 4
7 9 9 7 8 9 10 9 8 10 11 11 11 10 10 9 8 7 6 6 5 5 5 4 4 3 2 2 2 1 1 1 1 1 1 2 2 2 3 3 3 3 3 3 4 4 4 5 5
10 11 11 9 8 8 9 10 10 10 11 10 10 10 9 8 8 7 7 6 5 5 5 4 4 3 2 1 1 1 0 1 1 1 1 1 0 1 2 2 2 2 3 3 3 4 4 4 4
12 12 12 12 8 8 8 9 11 10 10 10 9 9 9 8 8 8 7 7 6 5 5 6 5 4 2 1 2 2 2 1 1 1 1 1 0 0 1 1 1 3 3 3 4 3 4 4 4
11 11 11 11 9 9 8 9 12 11 10 10 9 8 8 8 7 7 7 7 6 6 6 6 5 4 2 1 2 2 3 2 2 2 2 2 1 0 1 1 1 3 2 2 2 4 4 4 3
7 9 10 9 7 9 8 9 11 11 10 10 9 8 8 7 8 7 7 7 6 6 6 6 5 4 2 1 1 1 2 2 3 3 4 3 2 1 1 1 1 2 1 2 3 4 5 4 3
8 9 10 9 6 5 7 8 9 10 10 9 9 8 8 9 8 6 6 6 6 7 6 6 5 4 3 2 1 1 1 2 3 3 4 4 4 3 1 1 1 1 1 2 3 3 4 4 4
8 8 9 10 9 6 7 8 10 10 9 9 9 8 8 8 8 7 6 6 7 7 6 6 6 5 4 2 2 2 2 2 3 4 3 5 5 4 3 2 2 2 2 1 2 3 4 4 4
7 5 7 11 12 9 10 8 11 12 12 11 10 10 10 9 8 8 7 7 7 6 6 7 6 6 5 4 3 3 3 3 4 3 4 4 5 5 4 3 2 3 2 2 3 2 4 5 5
2 5 8 10 9 7 10 9 8 12 12 13 12 11 10 10 9 9 8 7 7 6 6 6 7 7 7 7 6 5 5 4 3 3 4 4 5 5 5 4 4 3 3 3 3 3 4 4 5
6 7 7 8 9 10 8 9 5 8 9 10 11 11 10 10 10 9 9 8 7 6 6 6 7 7 7 7 7 7 7 5 5 5 4 3 3 4 6 5 4 3 3 3 3 3 4 4 4
9 9 7 9 9 6 5 7 1 4 3 5 8 10 11 11 11 10 10 9 7 7 6 6 7 7 7 7 7 7 6 5 6 5 5 4 4 4 6 6 5 4 4 4 4 3 3 3 4
8 10 7 6 6 4 6 6 4 5 2 2 6 9 10 11 11 10 9 8 8 7 6 6 7 7 6 7 7 6 6 4 5 6 5 5 4 5 6 5 4 4 4 4 3 3 3 2 3
7 8 5 7 7 6 5 4 5 4 4 4 7 9 10 11 11 11 9 9 8 7 7 7 7 7 6 6 6 6 6 6 6 5 5 5 5 4 5 5 5 4 4 4 4 3 3 3 3
4 3 5 7 6 7 6 6 3 5 4 5 7 8 8 10 11 10 9 8 8 7 7 7 6 6 6 6 5 5 6 6 6 6 7 6 6 5 5 5 5 5 5 5 4 3 3 3 3
4 6 6 6 6 6 5 2 5 2 4 5 7 8 8 9 10 9 9 8 8 7 7 6 6 6 5 5 5 5 5 6 6 6 6 6 6 5 5 5 5 6 6 6 5 5 5 4 4
3 3 5 6 5 6 6 4 7 4 5 6 7 8 8 9 9 9 9 8 7 7 7 6 5 5 5 5 5 5 5 6 6 6 6 6 6 5 5 5 6 6 6 6 6 6 6 5 5
Wind_Direction
232 230 227 227 227 224 194 143 142 124 103 75 77 98 79 48 26 70 106 144 140 138 136 139 135 135 135 137 138 139 141 141 141 141 141 141 140 137 133 129 125 123 122 122 121 122 123 124 126
222 211 219 227 237 205 163 148 150 89 89 110 105 107 95 74 54 90 127 140 145 140 143 143 135 138 136 137 137 138 141 142 142 141 142 143 141 139 135 131 129 127 127 126 126 126 127 128 130
209 227 231 223 232 216 133 127 114 105 129 150 120 83 70 70 80 109 132 144 143 143 142 130 139 138 137 138 137 138 141 142 142 143 143 143 142 139 137 136 134 132 131 130 131 131 133 135 137
207 206 225 232 198 139 103 119 123 146 132 137 132 107 83 39 75 126 139 144 143 143 141 135 142 139 140 141 141 142 142 143 144 144 145 143 141 140 139 139 138 137 136 136 136 137 139 141 141
230 224 212 205 175 130 133 125 189 169 136 134 133 111 87 51 95 123 138 140 141 142 141 139 141 139 140 143 143 144 144 144 145 146 145 144 143 142 142 142 142 142 143 143 142 144 146 148 146
211 226 214 188 154 141 135 136 174 156 136 132 134 116 90 98 113 127 133 138 139 141 141 137 141 143 143 144 143 142 142 143 144 146 146 145 144 144 144 146 146 146 147 148 148 150 152 153 152
234 226 211 170 149 142 113 121 156 151 139 121 131 117 117 119 118 124 127 132 137 141 136 143 148 148 146 142 143 141 140 142 143 145 146 148 151 152 152 151 152 152 152 153 154 157 160 160 162
261 231 183 168 159 127 119 127 108 133 109 94 119 133 137 135 130 127 128 129 128 131 135 143 147 150 155 152 149 147 146 148 148 148 152 155 159 163 163 168 157 160 161 161 162 165 167 167 170
245 230 171 149 148 121 133 138 113 115 115 96 71 82 117 132 138 135 133 133 131 131 133 141 144 150 158 152 148 155 152 153 162 162 160 177 183 175 179 162 152 171 173 171 170 172 175 181 181
235 209 118 95 94 119 133 131 133 150 131 113 104 104 122 136 143 140 137 136 136 135 136 138 142 150 157 148 151 163 167 166 189 172 176 194 184 189 188 131 167 181 185 184 182 181 190 214 198
223 132 106 118 96 127 133 122 135 150 128 128 131 130 135 136 138 134 129 126 125 121 118 119 138 150 154 155 160 169 174 170 185 178 185 192 194 194 198 176 178 191 197 201 179 197 213 217 220
183 106 95 105 121 147 130 123 106 80 91 110 122 130 135 136 134 129 125 122 119 117 113 108 113 133 157 151 160 177 182 178 180 176 196 193 199 209 203 216 216 213 211 215 218 226 221 236 229
177 126 112 117 130 119 121 112 101 94 103 114 120 126 128 129 126 120 117 114 111 109 106 105 104 112 122 133 168 166 185 191 177 186 193 208 208 210 207 217 232 243 234 215 226 240 232 238 233
140 129 132 134 126 136 128 120 116 111 122 124 127 125 121 120 119 116 111 108 102 95 90 94 103 105 119 136 142 158 168 182 186 180 191 212 223 217 222 225 232 246 251 256 247 242 239 244 249
156 151 143 144 149 148 146 124 113 132 138 133 131 124 119 115 111 103 96 95 94 93 89 88 96 91 101 126 146 147 166 168 179 165 178 204 230 223 230 233 230 235 243 246 247 242 242 239 238
179 181 161 146 163 168 207 137 131 149 152 144 140 134 125 114 109 101 96 88 83 82 79 63 61 74 89 104 117 117 138 127 138 132 145 179 221 256 251 248 248 255 252 247 245 247 245 246 250
189 191 160 147 172 179 210 135 145 164 162 155 153 146 137 124 111 98 93 85 79 76 70 62 49 42 56 108 127 126 113 95 95 80 73 65 90 262 263 275 284 260 255 253 256 241 254 251 250
182 176 166 160 165 190 186 142 150 170 174 166 159 153 148 134 112 100 93 87 82 75 67 59 54 36 22 73 125 120 102 96 80 65 46 40 73 95 275 218 272 270 260 257 259 258 250 253 247
186 185 168 146 159 193 177 157 160 171 183 177 176 169 157 134 117 109 98 91 85 78 70 61 51 37 19 23 20 98 98 86 72 64 48 39 36 32 314 270 220 258 250 267 266 258 247 241 236
196 192 164 143 154 200 170 167 165 181 192 188 185 179 162 144 135 122 108 98 86 77 70 67 55 42 30 40 31 50 75 81 77 61 48 38 34 19 19 352 291 288 269 258 269 267 263 249 233
200 203 174 160 155 183 174 182 186 187 195 193 199 186 174 166 152 140 122 102 87 74 63 59 49 40 33 29 87 110 125 107 78 60 51 37 33 32 21 13 338 308 280 274 278 274 264 259 242
193 196 187 173 188 182 203 210 187 188 193 198 198 191 179 169 158 143 128 110 91 81 74 66 57 48 40 36 56 67 68 74 57 49 50 47 43 36 29 16 358 326 311 302 281 266 265 260 255
171 172 190 198 214 203 207 241 174 181 200 200 197 191 179 169 157 141 128 114 99 87 78 72 65 55 48 46 56 62 68 73 72 64 65 48 50 39 28 18 5 348 328 321 302 288 271 263 262
150 162 174 207 220 222 206 238 189 177 205 196 187 181 174 163 149 137 127 118 107 96 85 78 72 61 54 55 56 60 66 66 63 53 47 42 45 39 29 17 7 352 344 331 313 295 282 279 274
196 201 202 206 217 217 167 236 139 123 170 195 179 171 166 159 149 142 137 128 114 101 91 85 80 71 64 63 60 60 63 66 62 47 46 30 29 29 23 12 3 359 352 338 327 305 301 289 274
216 238 252 247 235 199 180 226 106 85 98 148 155 154 157 157 149 145 140 131 123 112 102 90 83 77 71 67 64 58 51 51 55 44 35 38 28 25 15 9 4 1 355 351 340 316 309 304 282
220 235 286 276 264 252 210 177 133 120 126 134 138 146 155 153 148 144 140 134 124 114 100 92 87 81 72 69 68 63 54 48 48 43 36 42 32 24 19 11 12 15 14 7 347 353 329 309 290
280 245 240 252 252 249 223 212 161 146 146 143 142 145 146 148 146 143 139 131 121 112 102 94 91 84 75 68 59 63 62 57 51 44 42 35 31 28 18 17 23 24 20 12 360 356 350 320 315
217 218 250 261 274 271 255 128 49 65 141 155 150 147 144 146 143 142 138 132 128 120 111 104 97 91 83 74 69 65 64 61 57 51 44 36 30 27 28 27 28 26 22 17 13 9 358 352 347
253 269 258 259 255 266 282 88 58 60 107 131 135 136 139 140 141 139 137 135 133 123 116 108 103 98 88 80 76 70 64 59 53 49 41 35 32 27 30 29 32 29 26 20 18 16 14 9 1